Regional Weather Roundup
Issued by NWS

Home | Current Version | Previous Version | Text Only | Print | Product List | Glossary Off
Versions: 1 2 3 4 5 6 7 8 9 10 11 12 13 14 15 16 17 18 19 20 21 22 23 24 25 26 27 28 29 30 31 32 33 34 35 36 37 38 39 40 41 42 43 44 45 46 47 48 49 50

000
ASUS43 KIND 311109
RWRIN

WEATHER ROUNDUP FOR INDIANA
NATIONAL WEATHER SERVICE INDIANAPOLIS IN
700 AM EDT MON AUG 31 2015

NOTE: "FAIR" INDICATES FEW OR NO CLOUDS BELOW 12,000 FEET WITH NO
SIGNIFICANT WEATHER AND/OR OBSTRUCTIONS TO VISIBILITY.

* - STATION DOES NOT REPORT WEATHER SUCH AS PRECIPITATION OR FOG.

+ - STATION NOT QUALITY CONTROLLED BY THE NATIONAL WEATHER SERVICE.
    USE DATA WITH CAUTION...ESPECIALLY DEWPOINT AND RELATIVE
    HUMIDITY OBSERVATIONS.

INZ001>003-010>013-019-020-311200-
NORTHWEST INDIANA

CITY           SKY/WX    TMP DP  RH WIND       PRES   REMARKS
GARY /AIRPORT/ MOCLDY    66  64  94 CALM      30.05S FOG
KNOX *+        CLOUDY    59  59 100 CALM      30.05R VSB 1/4
LA PORTE +     FOG      N/A N/A N/A CALM      30.07R VSB 1/4
MICHIGAN CITY+ MOCLDY    63  63 100 CALM      30.06R FOG
MONTICELLO +   CLEAR     67  67 100 S5        30.05R FOG
RENSSELAER +   FOG       59  59 100 CALM      30.06R VSB 1/4
VALPARAISO     FOG       64  63  96 CALM      30.06R VSB 1/4

$$

LMZ046-743>745-311200-
SOUTHERN LAKE MICHIGAN

STATION/POSITION TIME  TEMP    WIND        PRES    WAVE
                       AIR SEA DIR/SP/G            HT
                 (UTC) (F)     (DEG/KT/KT) (MB)    (FT)
BURNS HARBOR     1000   68     210/  2/  3 1017.6S
MICHIGAN CITY    1000   67     130/  2/  3   N/A
5NW MICH CITY    1100   69 71  200/  2/  4   N/A     0

$$

INZ004-005-014>016-021>024-311200-
NORTH CENTRAL INDIANA

CITY           SKY/WX    TMP DP  RH WIND       PRES   REMARKS
ELKHART        FOG       61  61 100 CALM      30.07  VSB 1/2
GOSHEN         FOG       62  61  96 CALM      30.06R VSB 1/4
LOGANSPORT +     N/A     63  61  94 CALM      30.07S FOG
PERU/GRISSOM   CLEAR     66  64  94 S3        30.07R FOG
ROCHESTER +    CLEAR     68  68 100 CALM      30.07R FOG
SOUTH BEND     MOCLDY    61  59  93 CALM      30.07R FOG
WARSAW +       FOG       63  63 100 CALM      30.06S VSB 1/4

$$

INZ006>009-017-018-025>027-311200-
NORTHEAST INDIANA

CITY           SKY/WX    TMP DP  RH WIND       PRES   REMARKS
ANGOLA *+      CLOUDY    63  61  94 CALM      30.08R VSB 1/4
AUBURN +       FOG       63  63 100 CALM      30.08R VSB 1/4
FORT WAYNE     CLEAR     64  63  96 S3        30.08R FOG
HUNTINGTON +   CLEAR     64  61  90 S3        30.07R FOG

$$

INZ028-029-035-036-043>045-051>053-311200-
WEST CENTRAL INDIANA

CITY           SKY/WX    TMP DP  RH WIND       PRES   REMARKS
CRAWFORDSVL +  MOCLDY    61  61 100 CALM      30.08R FOG
GREENCASTLE +  FOG       63  61  94 CALM      30.09R VSB 1/2
LAFAYETTE      CLEAR     63  63 100 CALM      30.06R FOG
TERRE HAUTE    MOCLDY    65  65 100 CALM      30.07R FOG

$$

INZ030>032-037>040-046>048-054>057-064-065-311200-
CENTRAL INDIANA

CITY           SKY/WX    TMP DP  RH WIND       PRES   REMARKS
FRANKFORT +    FOG      N/A N/A N/A CALM      30.09R VSB 1
GREENWOOD *+   CLOUDY    68  66  94 CALM      30.09R
INDIANAPOLIS   PTCLDY    67  65  93 S5        30.07R
-EAGLE CREEK   CLEAR     67  66  97 CALM      30.08R FOG
KOKOMO *+      CLEAR     63  61  94 SW5       30.08R
MARION +       CLEAR     62  58  84 CALM      30.08S HAZE
MT COMFORT *+  CLEAR     66 N/A N/A CALM      30.09R
SHELBYVILLE    PTCLDY    68  65  90 S5        30.08R
ZIONSVILLE +   PTCLDY    64  61  90 CALM      30.09R FOG

$$

INZ033-034-041-042-049-050-058-059-311200-
EAST CENTRAL INDIANA

CITY           SKY/WX    TMP DP  RH WIND       PRES   REMARKS
MUNCIE         MOCLDY    67  66  97 SW6       30.09R

$$

INZ060-061-067>069-081>083-085>088-311200-
SOUTHWEST INDIANA

CITY           SKY/WX    TMP DP  RH WIND       PRES   REMARKS
EVANSVILLE     CLEAR     66  64  93 CALM      30.09R FOG
HUNTINGBURG *+ CLEAR     66  63  88 S5        30.10R
WASHINGTON +   CLEAR     66  62  87 S3        30.08R FOG

$$

INZ062-063-066-070>080-084-089>092-311200-
SOUTH CENTRAL AND SOUTHEAST INDIANA

CITY           SKY/WX    TMP DP  RH WIND       PRES   REMARKS
BLOOMINGTON    CLEAR     64  62  93 CALM      30.09S VSB 1
MADISON *+       N/A     64  63  94 CALM      30.12R VSB 1
NORTH VERNON + CLEAR     66  66 100 CALM      30.10R FOG
SEYMOUR +      FOG       64  64 100 CALM      30.09R VSB 1/4

$$




USA.gov is the U.S. government's official web portal to all federal, state and local government web resources and services.